Location: St. Louis
(38.6270°N, 90.1994°W)
Time: 07:14:26
(UTC-06:00)

Transit 2A - Pass Details

Date: 09 December 2021
Orbit: 591 x 967 km, 66.7° (Epoch: 20 January)

Event Time Altitude Azimuth Distance (km) Brightness Sun altitude
Rises 08:39:55 0° 323° (NW) 3,655 8.9 13.6°
Reaches altitude 10° 08:42:44 10° 315° (NW) 2,689 8.3 14.0°
Maximum altitude 08:48:22 35° 252° (WSW) 1,440 7.4 14.8°
Drops below altitude 10° 08:53:41 10° 188° (S) 2,523 9.4 15.5°
Sets 08:56:15 0° 179° (S) 3,402 10.1 15.8°
